Regional Weather Roundup
Issued by NWS

Home | Current Version | Previous Version | Graphics & Text | Print | Product List | Glossary On
Versions: 1 2 3 4 5 6 7 8 9 10 11 12 13 14 15 16 17 18 19 20 21 22 23 24 25 26 27 28 29 30 31 32 33 34 35 36 37 38 39 40 41 42 43 44 45 46 47 48 49 50
000
ASUS43 KOAX 280110
RWRNE

WEATHER ROUNDUP FOR NEBRASKA
NATIONAL WEATHER SERVICE OMAHA NE
800 PM CDT TUE SEP 27 2016

NOTES: SATELLITE DATA IS BEING USED TO AUGMENT CLOUD COVER ABOVE
       12000 FEET.
       "FAIR" INDICATES FEW OR NO CLOUDS BELOW 12,000 FEET WITH NO
       SIGNIFICANT WEATHER AND/OR OBSTRUCTIONS TO VISIBILITY.

  * THESE STATIONS DO NOT REPORT WEATHER SUCH AS RAIN...SNOW OR FOG.

NEZ001>004-019>022-054>056-280200-
NEBRASKA PANHANDLE

CITY           SKY/WX    TMP DP  RH WIND       PRES   REMARKS
SCOTTSBLUFF    CLEAR     67  44  43 NE7       30.05R
ALLIANCE       CLEAR     67  38  34 N8        30.04R
CHADRON        CLEAR     72  41  32 N7        30.02R
KIMBALL        CLEAR     65  41  40 NE7       30.12R HAZE
SIDNEY         CLEAR     65  34  31 NE5       30.09S
$$

NEZ057>060-069>072-079>082-280200-
SOUTHWEST NEBRASKA

CITY           SKY/WX    TMP DP  RH WIND       PRES   REMARKS
NORTH PLATTE   CLEAR     64  45  49 N6        29.96R
IMPERIAL       CLEAR     76  36  23 NW5       30.00S
LEXINGTON      CLEAR     70  46  42 NW7       29.92S
MCCOOK         CLEAR     74  45  35 SW6       29.95S
OGALLALA       CLEAR     67  38  34 NW6       30.00S
$$

NEZ005>010-023>029-035>040-094-280200-
NORTH CENTRAL NEBRASKA

CITY           SKY/WX    TMP DP  RH WIND       PRES   REMARKS
VALENTINE      CLEAR     70  39  32 N7        29.96R
AINSWORTH      CLEAR     63  46  55 N9        29.96R
BROKEN BOW     CLEAR     64  43  46 N6        29.93R
O`NEILL        CLEAR     68  43  40 N6        29.92R
ORD            CLEAR     66  43  43 NW6       29.90R
THEDFORD       CLEAR     70  44  39 NW5       29.98R
$$

NEZ041-046>049-061>064-073>077-083>087-280200-
SOUTH CENTRAL NEBRASKA

CITY           SKY/WX    TMP DP  RH WIND       PRES   REMARKS
GRAND ISLAND   CLEAR     67  50  54 W3        29.89R
AURORA           N/A     68  49  50 CALM      29.88S HAZE
HASTINGS       CLEAR     70  49  47 CALM      29.90S
HEBRON         CLEAR     69  48  47 SW3       29.88S
HOLDREGE       CLEAR     70  46  42 CALM      29.92R
KEARNEY *      CLEAR     73  46  38 W3        29.90R
YORK           LGT RAIN  68  48  49 E3        29.88S
$$

NEZ011>018-030>034-042>045-280200-
NORTHEAST NEBRASKA

CITY           SKY/WX    TMP DP  RH WIND       PRES   REMARKS
NORFOLK        CLEAR     63  47  55 CALM      29.88R
ALBION         CLEAR     63  49  59 CALM      29.89S
BLAIR          CLEAR     67  46  46 NW3       29.86S
FREMONT        CLEAR     62  50  64 CALM      29.87S
TEKAMAH        CLEAR     61  48  62 NW5       29.85S
WAYNE          CLEAR     59  48  67 CALM      29.88R
$$

NEZ050>053-065>068-078-088>093-280200-
SOUTHEAST NEBRASKA

CITY           SKY/WX    TMP DP  RH WIND       PRES   REMARKS
LINCOLN        CLEAR     70  50  49 CALM      29.87S
OMAHA EPPLEY   CLEAR     66  56  70 CALM      29.85S
BEATRICE       CLEAR     67  52  58 CALM      29.87S
FALLS CITY     CLEAR     68  52  56 CALM      29.86S HAZE
NEBRASKA CITY  CLEAR     71  31  22 CALM      29.86F
PLATTSMOUTH    CLEAR     70  39  31 CALM      29.86F
$$

NEZ044-045-051>053-067-280200-
OMAHA AREA

CITY           SKY/WX    TMP DP  RH WIND       PRES   REMARKS
OMAHA EPPLEY   CLEAR     66  56  70 CALM      29.85S
BLAIR          CLEAR     67  46  46 NW3       29.86S
FREMONT        CLEAR     62  50  64 CALM      29.87S
MILLARD        CLEAR     64  52  65 CALM      29.85F
OFFUTT AFB     CLEAR     58  53  83 NW2       29.84F
PLATTSMOUTH    CLEAR     70  39  31 CALM      29.86F
WAHOO          FAIR      65  48  55 CALM      29.86S
$$




USA.gov is the U.S. government's official web portal to all federal, state and local government web resources and services.